Wind_Speed
29 28 28 27 27 27 28 28 28 28 28 28 28 29 29 29 29 29 28 28 28 28 28 27 27 26 26 25 25 24 24 24 24 24 25 25 25 25 24 23 23 23 23 24 23 23 22 21 21 22 22 22 21 20 19 19 19 21 22 24 24 24 24 23 23 23 22 23 22
29 28 28 27 27 27 27 28 28 28 28 28 28 28 29 29 29 28 28 28 27 27 27 27 26 26 26 25 25 24 24 24 24 25 25 25 25 25 25 24 23 23 23 24 24 23 22 22 22 22 23 22 21 21 20 20 21 23 24 25 25 24 24 24 24 24 23 23 22
29 28 28 27 27 27 27 27 28 28 28 28 28 28 28 28 28 28 27 27 27 26 26 26 26 26 25 25 24 24 23 24 25 25 25 25 25 25 25 25 24 24 24 24 24 23 23 22 22 22 22 22 21 21 21 21 23 24 25 26 25 24 24 25 24 24 24 23 21
29 28 27 27 26 26 26 27 27 28 28 28 28 28 27 27 27 26 26 26 26 25 25 25 25 25 25 25 24 24 24 24 25 26 26 26 26 25 25 25 25 25 25 25 24 24 23 22 22 22 21 21 20 21 21 23 24 25 26 25 25 25 25 25 24 23 23 22 20
28 28 27 26 26 26 26 26 27 27 28 28 27 27 26 26 25 25 25 25 24 24 24 24 24 25 25 25 25 25 25 25 26 27 27 27 26 25 25 25 26 26 26 26 25 24 23 22 22 21 21 20 20 21 22 24 25 26 26 25 25 25 25 24 23 22 21 20 19
28 27 26 26 25 25 25 26 26 27 27 27 26 26 25 25 24 24 24 24 24 24 24 25 25 26 26 26 26 26 27 27 27 27 27 27 26 25 25 25 26 27 27 27 26 25 24 23 22 21 20 20 20 21 23 25 26 26 26 26 25 24 24 23 21 20 19 18 16
27 26 25 25 25 25 25 26 26 26 26 26 25 24 24 24 23 23 24 24 25 25 26 27 27 27 28 28 28 28 28 28 28 28 28 27 26 24 24 25 26 28 29 28 28 26 24 23 22 21 20 20 21 22 24 25 26 26 26 26 24 23 22 21 19 18 17 15 13
26 25 25 25 25 25 26 26 26 26 25 24 24 23 23 24 24 24 25 25 26 27 28 29 29 29 29 29 29 29 29 29 28 28 27 26 25 24 24 25 27 28 29 29 28 27 25 23 22 21 21 21 22 23 24 25 26 26 26 25 23 22 20 19 18 16 15 12 10
26 26 25 25 25 26 26 26 26 25 24 24 23 23 23 24 25 26 26 27 28 29 29 29 30 30 29 29 29 29 29 28 28 28 27 26 24 24 24 25 27 28 28 28 28 26 25 23 22 21 21 22 23 24 25 26 26 26 26 24 22 21 19 17 16 14 12 9 8
26 26 26 26 27 27 27 26 26 25 24 24 24 24 24 25 26 27 28 28 29 30 30 30 30 29 29 29 29 29 28 28 28 27 27 25 24 24 25 26 27 28 28 28 27 26 24 22 22 21 21 22 23 24 25 26 27 27 25 23 21 19 17 14 12 10 8 7 6
27 27 27 28 28 28 28 27 26 26 25 25 25 26 26 27 27 28 28 29 29 29 29 28 28 29 29 28 28 28 28 27 27 27 27 26 25 25 25 27 28 28 29 28 27 26 24 23 22 21 21 21 22 23 26 27 27 26 24 21 19 17 14 11 7 6 5 5 7
28 28 28 28 28 28 28 28 27 27 26 26 26 27 27 28 28 28 28 28 28 27 27 27 27 28 28 28 28 27 27 27 27 27 27 27 26 26 27 27 28 29 29 28 27 26 25 23 22 21 20 20 21 23 26 27 27 25 22 19 17 15 12 8 4 3 4 6 8
29 29 29 29 29 29 29 28 28 27 26 26 26 27 27 27 27 27 26 26 26 26 26 26 26 27 27 27 27 27 27 27 28 28 28 28 28 28 28 28 28 29 29 29 28 26 25 24 23 22 20 19 20 23 26 27 26 23 20 18 16 14 11 6 3 3 4 7 9
30 30 30 29 29 29 29 28 27 26 25 26 26 26 26 26 26 25 25 25 25 26 26 26 26 26 26 26 26 27 27 28 29 29 29 29 29 29 29 28 28 28 28 28 27 26 25 24 23 22 21 19 20 23 26 25 23 20 17 15 15 15 13 8 4 4 6 9 10
30 30 30 29 29 29 28 27 26 25 25 25 25 26 26 25 25 25 25 25 25 26 26 26 26 26 26 26 27 28 29 29 30 30 30 31 31 30 29 28 27 27 27 28 27 26 24 23 23 22 21 19 20 24 25 23 20 16 14 13 14 15 15 11 7 5 6 9 11
30 30 30 30 29 28 27 26 25 24 24 25 25 25 25 25 25 25 25 25 25 25 25 26 26 27 27 28 29 30 31 31 31 32 32 32 31 30 28 27 26 26 27 27 26 25 24 23 22 22 21 20 20 23 25 23 18 13 11 10 12 13 13 11 9 7 8 9 11
31 30 30 29 28 27 26 25 24 24 24 24 24 25 25 25 25 25 25 25 25 25 25 26 27 28 30 31 32 33 33 34 33 33 32 32 30 29 27 26 26 25 25 26 26 25 24 22 22 21 21 20 21 24 26 23 17 12 10 10 10 10 10 11 11 11 11 11 12
31 30 29 29 27 26 25 25 24 24 24 24 24 24 25 25 24 24 24 24 24 25 26 28 29 31 32 34 35 35 35 36 36 34 32 31 29 27 26 26 25 25 24 24 24 24 23 23 22 21 20 19 21 25 26 21 15 12 10 9 9 9 11 13 14 15 14 14 14
30 29 29 28 27 26 25 24 24 23 23 24 24 24 24 24 24 23 23 24 25 26 28 30 31 33 34 35 36 36 36 37 37 35 32 29 27 27 27 26 26 24 23 23 23 23 22 22 22 21 20 20 23 26 25 17 13 11 10 8 8 10 12 15 16 16 15 15 15
29 28 27 27 26 26 25 24 24 23 23 23 24 24 24 24 23 23 24 25 26 28 30 32 33 34 35 35 35 36 36 37 36 34 31 28 27 27 28 28 27 24 22 21 21 21 21 21 21 20 20 22 27 27 22 13 11 9 8 7 9 11 13 15 15 15 15 15 15
27 27 26 26 26 26 25 24 24 23 23 24 24 25 24 23 23 23 24 26 27 29 31 32 33 34 35 35 35 35 36 35 34 32 30 29 29 30 30 30 27 24 21 19 19 18 18 18 17 18 22 28 29 24 15 10 9 7 5 7 9 11 12 11 10 10 10 9 8
26 26 26 26 26 26 25 25 24 24 24 24 25 25 24 24 23 24 25 27 28 30 31 33 34 35 35 35 35 35 34 33 32 31 30 30 31 32 31 30 27 23 20 18 17 16 16 16 17 23 29 31 24 14 8 8 6 5 5 8 10 10 7 3 4 5 5 6 8
25 25 25 26 26 26 26 26 25 25 25 25 25 25 25 24 24 25 26 27 28 30 31 33 34 35 35 35 34 34 33 32 31 30 31 32 33 33 32 29 26 22 19 18 18 19 20 21 27 32 31 22 12 7 6 5 5 6 8 10 10 7 5 11 14 13 12 11 12
24 25 26 26 27 28 28 27 27 27 26 26 26 26 25 25 25 26 27 27 28 29 31 34 35 36 35 34 33 32 31 31 31 31 32 33 34 33 32 30 26 22 20 20 23 25 25 28 35 32 22 12 9 8 7 7 7 9 10 9 7 7 13 19 18 14 11 9 10
25 25 26 27 28 29 29 29 29 28 27 27 26 26 25 26 26 26 27 27 28 30 32 35 37 37 35 34 32 31 30 30 31 32 33 34 34 34 33 30 27 24 22 24 28 28 28 30 30 21 15 14 12 10 9 8 8 7 6 6 10 16 20 21 17 13 11 11 12
25 26 27 28 29 30 30 30 29 28 27 27 26 25 25 26 26 26 26 27 29 31 34 37 38 36 34 33 32 31 31 31 31 32 33 34 34 34 32 30 28 27 28 30 32 30 28 25 20 17 17 16 13 11 8 7 7 8 11 15 19 22 23 21 19 17 17 17 18
26 27 28 29 29 30 30 30 29 28 27 26 26 25 25 25 25 25 26 27 30 33 36 37 37 35 33 33 32 32 31 31 32 32 33 33 34 33 32 31 31 32 34 35 31 27 23 20 19 19 18 15 13 11 11 14 17 19 21 22 23 24 23 22 21 21 22 22 22
27 28 29 30 30 30 30 29 29 28 27 26 25 25 25 25 25 26 27 29 31 34 37 37 35 34 33 32 32 32 32 31 31 32 32 32 32 32 32 33 36 38 38 34 27 23 23 22 21 19 17 14 14 16 19 22 23 23 23 24 24 24 24 24 23 23 24 24 23
27 29 30 30 30 30 29 29 28 27 26 25 24 24 25 26 26 27 29 31 33 36 37 36 34 32 32 32 32 32 31 31 31 31 31 32 32 33 34 37 40 42 39 31 26 25 25 23 21 18 16 16 18 20 23 24 24 23 23 23 24 24 25 25 25 25 24 24 24
28 29 30 30 29 29 29 28 27 26 25 24 24 24 26 27 28 30 31 33 35 36 36 35 33 31 31 31 31 31 31 31 30 30 31 32 33 34 36 38 41 41 38 32 27 25 25 22 19 17 16 18 20 22 23 23 22 22 22 23 24 24 25 25 25 25 23 22 22
28 29 29 29 29 29 28 27 26 25 24 24 24 26 27 29 30 32 33 34 35 35 35 33 31 30 30 30 31 31 30 30 30 30 31 32 34 35 36 38 40 39 36 32 28 27 26 23 19 16 16 18 20 22 23 23 23 23 24 24 25 25 26 26 26 24 23 22 21
29 29 29 29 28 28 28 27 26 25 24 24 25 27 28 30 31 32 33 33 34 35 34 32 30 30 29 30 30 30 30 29 29 30 31 33 34 35 36 37 39 38 36 33 30 28 27 24 20 17 16 17 19 20 22 23 24 26 27 28 28 28 28 28 27 26 24 23 22
29 29 28 28 28 28 27 27 26 25 24 25 26 27 29 30 31 32 32 33 33 33 33 31 29 28 28 29 29 29 29 29 29 30 32 33 33 34 34 35 38 39 38 36 32 31 30 26 22 19 17 17 17 18 19 21 23 26 29 31 32 33 33 32 31 29 26 24 23
29 29 28 28 28 27 27 26 25 25 25 25 26 27 28 30 31 32 33 33 32 32 30 29 27 26 26 27 27 27 28 29 30 31 32 32 33 33 33 34 37 39 39 39 35 33 32 30 26 22 19 17 17 17 17 18 19 23 27 31 33 35 35 34 33 31 28 24 21
28 28 28 28 27 27 27 26 26 25 26 26 27 27 28 30 31 32 32 32 31 30 29 27 26 24 24 25 26 26 27 29 30 31 32 32 32 32 32 33 35 38 41 41 37 34 33 33 30 25 21 19 18 18 18 17 17 18 22 25 29 31 32 32 32 31 30 27 22
28 28 27 27 27 27 26 26 26 26 26 26 26 27 28 29 31 31 32 31 30 29 28 26 24 23 23 24 24 25 26 29 30 31 31 31 31 32 32 32 34 38 41 41 38 35 34 34 33 30 25 22 20 20 19 18 17 16 16 18 21 23 25 27 28 29 30 29 27
27 27 27 27 27 26 26 26 26 26 26 26 26 26 27 28 30 31 31 30 30 28 27 25 23 22 22 22 22 23 25 27 29 30 30 31 31 31 31 32 34 36 39 40 39 36 34 34 35 34 30 26 24 23 22 21 19 17 15 15 16 17 18 20 22 24 26 28 28
26 26 26 27 27 26 26 26 26 26 25 25 25 25 26 27 29 30 30 29 28 27 25 23 22 21 20 20 20 22 23 25 27 29 29 30 30 30 30 31 33 35 37 38 38 37 35 33 34 35 34 30 27 26 25 24 22 20 17 16 15 15 16 17 18 19 21 23 25
25 25 26 26 27 26 26 25 25 25 24 24 24 24 25 26 27 28 28 27 26 25 23 21 20 19 19 19 19 21 23 25 26 27 28 28 28 28 29 30 32 33 34 35 36 36 35 34 33 35 36 33 31 28 27 26 25 23 21 18 16 15 16 16 17 18 19 20 22
24 25 25 26 26 26 25 24 24 23 23 23 23 24 25 25 26 26 26 25 24 23 21 19 18 17 17 17 18 20 22 24 25 26 26 26 26 27 28 29 30 31 32 33 34 35 35 34 33 33 35 35 33 30 28 27 26 25 23 22 19 17 16 16 16 17 18 19 21
24 25 25 26 26 26 25 23 23 22 22 22 23 23 23 23 24 25 25 25 23 21 19 17 16 16 16 16 18 20 22 23 24 24 25 25 25 26 27 28 29 30 31 32 32 33 33 33 32 32 32 34 34 32 30 29 27 26 24 23 21 20 18 17 17 17 17 18 20
Wind_Direction
336 335 334 333 332 331 331 331 331 331 330 330 330 329 329 329 328 328 328 328 328 328 327 327 326 326 325 325 326 327 328 329 333 337 339 339 339 339 338 336 333 330 328 327 326 328 330 332 332 331 330 330 330 331 333 336 337 336 336 335 334 332 329 327 325 324 322 318 313
337 336 334 333 332 331 330 329 329 329 328 328 328 328 327 327 327 326 326 326 326 325 325 324 323 323 323 323 325 326 328 330 334 336 337 337 338 339 338 337 334 330 328 326 326 328 330 331 331 330 329 329 329 330 332 335 335 334 333 333 332 330 326 324 322 320 318 315 311
338 337 335 334 332 331 330 329 328 328 327 327 327 327 326 326 326 326 325 325 324 324 325 324 323 324 324 325 326 327 330 333 335 334 334 334 336 338 339 338 335 332 329 327 327 328 330 331 330 329 327 327 329 331 333 335 335 333 332 331 329 326 322 319 318 317 315 313 311
339 338 337 335 334 332 331 329 328 327 327 327 327 326 326 326 326 326 326 325 326 327 328 328 328 329 330 330 329 330 333 335 335 333 331 332 334 336 338 339 337 334 331 329 328 329 330 331 329 327 326 327 330 331 332 333 333 332 331 329 327 324 321 318 317 316 314 312 309
339 339 338 336 335 333 331 330 329 328 328 327 327 327 327 327 328 328 329 330 331 333 334 335 337 337 336 335 334 335 336 336 335 332 330 330 331 333 336 338 338 336 333 331 330 330 330 330 327 325 325 327 328 329 330 332 332 331 330 328 326 323 321 319 317 315 313 309 306
340 339 338 336 334 333 331 330 330 329 329 328 329 329 330 331 332 333 335 336 337 339 342 344 344 342 340 339 339 338 337 336 335 333 330 328 327 330 333 336 337 336 334 332 330 329 329 328 325 324 324 325 326 328 330 332 332 331 330 328 326 324 322 319 317 314 310 306 303
339 338 337 335 334 333 332 331 330 330 330 330 332 333 334 336 338 340 341 342 344 346 348 348 347 345 343 342 340 339 337 336 334 332 328 325 325 327 331 334 336 335 332 330 328 327 326 325 323 321 321 322 324 328 332 334 333 333 332 332 329 327 324 320 316 312 308 304 300
338 337 336 335 334 333 333 333 332 332 333 334 337 339 341 342 345 346 347 348 349 350 350 349 347 346 344 342 340 338 337 335 333 330 327 324 324 326 330 332 333 331 329 326 324 323 323 322 319 318 318 319 322 328 334 337 337 336 336 336 333 329 324 320 315 310 305 300 296
337 336 335 335 334 335 335 335 336 337 338 341 343 346 348 350 352 352 352 352 350 350 349 348 347 345 343 341 339 338 336 334 332 329 326 324 323 325 328 329 329 326 324 322 320 319 319 318 315 313 313 316 321 328 335 338 339 339 339 338 336 331 325 320 314 308 302 297 294
337 336 336 336 336 337 338 339 340 342 345 348 350 352 354 356 356 356 354 352 350 349 348 346 344 343 341 340 339 338 336 335 332 330 327 325 324 325 326 326 324 322 319 317 316 316 316 313 310 308 309 313 320 327 335 338 339 340 340 340 338 334 328 322 315 309 303 299 298
337 337 338 339 340 341 342 344 345 348 350 353 354 356 358 358 358 356 354 351 348 347 345 343 342 341 340 339 339 338 337 337 336 334 332 329 327 325 323 322 320 317 315 313 314 314 313 309 305 304 306 312 319 327 334 339 340 341 342 344 342 336 329 321 316 310 308 306 302
338 339 340 342 343 344 346 348 350 352 354 356 357 357 358 358 357 355 351 349 346 344 342 341 341 341 340 340 340 339 340 341 340 340 338 335 332 328 324 321 317 314 313 312 313 312 310 306 302 300 302 310 320 329 335 339 341 343 345 347 345 339 330 317 308 305 304 299 297
340 342 343 345 346 348 350 352 353 354 355 356 357 357 357 356 355 352 348 346 344 343 343 343 343 343 342 342 343 344 344 345 345 344 343 340 337 334 329 324 320 317 315 314 312 311 308 304 300 297 299 309 323 332 337 339 342 345 347 347 347 344 336 316 296 288 288 286 288
344 346 347 348 349 350 352 354 355 355 355 356 357 357 356 355 353 350 348 346 346 346 347 348 347 346 346 348 348 349 349 349 348 346 344 342 340 338 334 329 325 321 318 315 313 310 307 303 298 295 296 306 324 335 340 341 343 345 347 347 348 348 345 332 315 289 281 280 283
348 350 350 351 352 353 355 356 356 355 356 357 357 357 356 354 352 351 350 350 350 351 352 352 352 352 354 355 355 355 353 351 349 346 344 342 341 340 336 332 327 323 320 317 313 310 306 302 297 292 292 299 320 334 340 341 344 347 350 348 350 352 352 347 341 311 285 280 285
352 352 353 353 354 355 357 358 357 357 357 358 358 357 356 354 353 353 353 353 354 355 356 356 357 358 359 359 359 356 353 351 349 346 344 343 342 340 337 333 329 325 321 318 315 311 306 300 295 290 287 292 311 328 336 338 342 349 354 351 352 355 355 351 344 325 302 292 292
354 355 355 355 356 357 359 360 359 359 359 359 358 357 357 355 355 355 356 357 357 358 359 0 0 360 359 359 358 355 351 349 348 347 345 344 343 341 338 335 331 327 323 319 315 311 306 300 293 286 283 288 305 322 331 334 340 349 355 352 352 349 344 335 328 321 313 306 300
356 357 357 358 358 360 1 2 1 1 1 360 359 358 358 357 356 357 360 2 2 1 1 2 1 0 359 357 356 353 350 348 348 348 347 345 343 341 339 337 334 330 326 321 316 311 306 301 293 286 281 286 304 320 328 333 342 352 356 350 342 331 321 316 314 312 310 306 301
358 359 360 0 1 2 3 3 2 2 2 2 1 360 359 359 359 1 4 6 5 4 2 0 360 359 358 357 355 353 351 349 349 349 348 346 343 341 341 340 338 335 329 322 316 311 306 301 295 287 283 289 307 319 326 334 347 356 354 341 322 311 309 309 308 306 303 300 299
1 2 3 3 4 4 4 4 4 4 4 3 3 1 0 1 3 6 7 7 6 4 2 360 358 358 358 356 355 354 352 352 350 350 349 347 344 343 344 344 343 339 333 325 318 312 308 304 297 289 287 297 311 319 327 340 356 360 349 322 305 303 305 306 305 302 300 298 300
4 6 6 6 7 7 6 6 6 6 6 6 5 3 3 4 7 9 9 8 5 3 1 359 358 357 356 354 353 353 353 352 351 351 350 348 347 347 348 348 347 343 337 330 323 318 314 312 304 299 302 310 317 324 336 357 6 359 331 305 302 304 305 304 304 304 304 306 311
8 9 9 9 10 9 9 9 8 8 8 8 7 5 5 7 10 11 10 7 5 2 0 359 357 356 354 353 352 353 353 352 351 351 351 351 351 352 352 351 348 345 342 339 337 335 334 330 322 317 318 320 327 340 6 19 10 340 309 303 307 309 312 349 50 60 60 61 61
12 12 12 13 13 13 12 11 10 10 9 9 8 7 7 9 11 11 9 6 4 2 360 358 356 355 354 353 352 353 353 353 352 352 353 355 356 356 355 353 350 347 347 351 354 354 351 342 331 325 326 333 354 24 31 13 342 318 310 312 315 326 41 77 82 84 83 78 68
15 16 16 16 16 15 13 12 11 10 9 9 8 8 9 10 10 9 7 4 3 1 359 357 355 354 354 353 354 354 355 355 354 355 357 359 359 359 357 355 351 349 351 356 359 357 350 337 329 330 340 15 38 33 10 348 331 322 320 324 342 44 72 77 81 82 79 69 55
18 18 18 17 16 15 13 11 10 9 8 8 8 9 10 10 9 7 5 3 1 360 358 357 356 355 354 354 356 358 358 358 358 359 0 2 2 2 1 358 353 350 349 351 354 352 343 333 334 347 21 41 34 20 5 352 342 339 350 29 64 72 74 77 81 80 72 64 56
19 19 18 17 16 14 12 10 8 7 7 7 8 10 11 10 9 7 4 2 0 359 359 358 357 355 355 357 359 1 1 1 1 2 4 4 5 5 3 359 354 349 346 347 349 346 342 345 2 27 41 34 27 21 20 27 42 62 76 81 79 76 75 77 76 72 66 62 59
19 19 18 16 15 12 10 8 7 6 6 6 8 11 12 11 10 7 4 2 0 360 360 359 357 356 356 359 2 3 4 4 4 5 6 7 8 7 4 359 352 349 348 350 350 353 2 19 38 42 37 32 33 42 57 69 76 82 85 84 80 77 76 75 70 64 59 56 54
19 18 16 15 13 10 9 8 6 6 6 7 9 12 13 12 10 7 4 2 1 1 1 360 358 357 359 2 4 5 5 6 7 8 9 9 9 7 2 357 353 353 356 360 8 20 31 39 42 40 37 41 50 62 70 73 76 80 83 83 80 78 76 73 67 60 55 50 48
19 17 15 13 11 9 8 8 7 7 7 8 11 14 14 13 10 7 5 4 3 1 0 359 359 360 2 4 5 6 7 8 9 10 11 11 10 7 3 0 359 1 7 19 32 37 36 36 38 39 43 52 61 68 72 75 78 82 83 82 80 78 75 71 66 60 54 49 45
18 17 14 12 10 9 8 8 8 8 9 10 13 15 14 12 10 8 6 5 3 1 0 360 0 2 5 6 7 7 8 9 11 13 14 13 10 8 6 5 6 10 18 32 39 38 34 35 37 41 48 56 63 67 71 75 80 82 82 80 79 77 74 71 66 62 57 52 47
18 16 13 12 10 9 9 8 9 10 11 13 14 15 14 12 10 8 7 5 3 2 1 2 3 5 7 8 8 8 10 12 15 16 16 14 12 11 10 10 10 14 22 33 40 39 37 37 38 40 46 54 60 63 66 69 73 75 75 74 75 75 74 71 67 63 59 56 54
18 15 13 12 11 10 9 9 10 11 13 14 15 14 13 11 10 8 7 6 4 3 3 3 4 6 7 8 8 10 12 16 18 18 17 15 15 14 15 15 14 15 22 33 40 40 37 38 37 37 39 46 54 57 59 59 62 64 65 66 68 70 71 70 66 62 58 54 55
17 15 13 12 11 10 10 10 11 12 14 15 14 13 11 11 10 9 8 7 6 5 4 4 5 7 8 8 8 11 15 19 21 19 18 17 17 18 19 20 17 16 20 30 38 39 36 36 36 35 34 37 45 50 52 52 53 56 58 60 63 66 68 67 64 61 56 52 53
17 14 13 12 11 10 10 10 10 11 13 13 13 12 11 11 10 9 8 8 7 7 6 6 7 8 9 8 10 13 18 22 22 21 19 19 20 21 23 24 22 18 19 27 34 36 33 33 34 34 33 33 38 44 47 47 48 51 55 59 63 66 67 66 64 61 57 52 51
16 14 12 12 11 10 10 9 9 10 11 11 11 11 11 11 10 9 9 8 7 7 7 8 9 10 10 11 12 15 20 22 23 22 21 22 23 24 26 28 26 22 20 25 31 33 31 29 30 32 33 33 36 39 42 43 44 47 53 58 63 66 67 67 65 62 58 51 46
16 13 12 11 11 9 9 8 8 8 9 9 10 10 11 11 11 10 10 8 7 7 8 10 12 13 14 14 15 18 20 21 22 22 23 23 25 27 28 30 29 25 23 24 29 31 29 27 27 29 32 33 34 37 39 40 41 43 48 54 60 63 65 66 65 63 59 53 46
15 13 12 11 10 9 7 7 6 7 8 8 9 10 10 10 11 11 11 9 8 8 10 12 15 16 17 18 20 21 21 20 21 22 23 24 26 28 30 31 31 27 24 23 26 29 29 27 24 26 30 32 33 34 35 36 36 38 42 48 54 58 60 62 63 63 60 55 48
15 13 12 11 10 8 7 6 7 7 7 8 9 9 10 10 10 11 11 11 10 9 11 14 17 18 19 21 23 23 22 20 20 21 23 24 26 28 31 33 32 29 26 24 24 26 28 27 24 24 27 31 33 33 32 32 31 32 34 40 46 52 55 57 59 61 61 57 50
15 13 11 10 10 9 8 7 7 7 8 8 8 9 9 10 10 11 12 13 12 12 14 17 19 21 22 23 24 23 22 21 21 22 24 25 26 28 31 33 33 31 28 25 24 25 26 26 25 23 24 29 32 33 32 30 28 27 27 29 34 40 46 49 52 55 57 56 51
16 13 11 10 9 8 8 8 8 8 8 8 8 8 8 9 9 10 12 15 15 16 17 20 22 23 23 23 23 22 21 21 22 23 25 26 27 29 31 34 34 32 29 27 25 25 26 26 25 23 22 25 29 32 33 31 28 25 23 22 22 25 30 35 39 43 46 48 47
17 14 11 10 8 7 7 7 6 7 7 8 9 8 8 7 8 9 12 16 18 19 20 22 24 25 25 23 22 21 21 21 22 24 25 26 28 29 32 34 34 32 29 26 25 25 26 27 26 24 22 21 25 28 31 32 30 26 23 20 18 17 19 21 23 26 30 34 39
Height
1540 1538 1536 1535 1533 1531 1530 1528 1526 1525 1523 1521 1519 1517 1515 1513 1511 1510 1508 1506 1505 1503 1501 1499 1498 1496 1495 1493 1492 1491 1489 1487 1486 1485 1484 1482 1481 1479 1478 1476 1475 1474 1472 1471 1469 1468 1467 1466 1464 1463 1462 1461 1460 1459 1458 1458 1457 1456 1456 1455 1454 1453 1452 1451 1450 1449 1449 1448 1448
1539 1537 1536 1534 1532 1531 1529 1527 1526 1524 1522 1520 1518 1516 1514 1512 1511 1509 1507 1506 1504 1502 1500 1498 1497 1495 1494 1492 1491 1489 1488 1486 1485 1484 1482 1481 1480 1478 1477 1476 1474 1472 1471 1470 1468 1467 1466 1464 1463 1462 1461 1460 1459 1458 1457 1457 1456 1455 1454 1453 1452 1451 1451 1450 1449 1448 1447 1446 1446
1538 1536 1535 1533 1531 1530 1528 1526 1524 1522 1521 1519 1517 1516 1513 1511 1510 1508 1506 1504 1503 1501 1499 1497 1496 1494 1492 1491 1490 1488 1487 1485 1484 1483 1481 1480 1479 1477 1476 1474 1473 1471 1470 1469 1467 1466 1465 1463 1462 1461 1460 1459 1458 1457 1456 1456 1455 1454 1453 1452 1451 1450 1449 1448 1447 1446 1446 1445 1444
1537 1535 1533 1532 1530 1528 1527 1525 1523 1521 1520 1518 1516 1514 1512 1511 1509 1507 1505 1503 1501 1500 1498 1496 1495 1493 1491 1490 1489 1487 1486 1485 1483 1482 1480 1479 1477 1476 1475 1473 1472 1470 1469 1467 1466 1465 1464 1462 1461 1460 1459 1458 1457 1456 1455 1454 1454 1453 1452 1451 1450 1449 1448 1447 1446 1445 1444 1443 1442
1536 1534 1533 1531 1529 1527 1526 1524 1522 1520 1519 1517 1515 1513 1511 1510 1508 1506 1504 1502 1501 1499 1497 1496 1494 1492 1491 1489 1488 1486 1485 1484 1482 1481 1479 1478 1476 1475 1474 1472 1471 1469 1468 1466 1465 1464 1462 1461 1460 1459 1458 1456 1456 1455 1454 1453 1452 1451 1450 1449 1449 1448 1447 1446 1445 1444 1443 1442 1441
1535 1533 1532 1530 1528 1527 1525 1523 1521 1520 1518 1516 1514 1512 1511 1509 1507 1505 1503 1501 1500 1498 1496 1495 1493 1492 1490 1488 1486 1485 1484 1482 1481 1480 1478 1477 1475 1474 1472 1471 1470 1468 1467 1465 1464 1463 1461 1460 1459 1457 1456 1456 1455 1454 1453 1452 1451 1450 1449 1448 1447 1446 1445 1444 1443 1442 1441 1441 1440
1534 1533 1531 1529 1527 1526 1524 1522 1521 1519 1517 1515 1513 1511 1509 1507 1506 1504 1502 1501 1499 1497 1496 1494 1492 1491 1489 1487 1486 1484 1483 1481 1480 1479 1477 1476 1474 1473 1471 1470 1468 1467 1466 1464 1463 1461 1460 1459 1458 1456 1455 1454 1453 1452 1451 1451 1450 1448 1447 1446 1445 1444 1443 1442 1441 1441 1440 1439 1438
1534 1532 1530 1529 1527 1525 1523 1521 1519 1517 1516 1514 1512 1510 1508 1506 1505 1503 1501 1499 1498 1496 1495 1494 1492 1490 1489 1487 1486 1484 1482 1481 1479 1478 1476 1475 1473 1471 1470 1469 1467 1466 1465 1463 1461 1460 1459 1458 1456 1455 1454 1453 1452 1451 1450 1449 1448 1447 1446 1444 1443 1442 1441 1441 1440 1439 1438 1438 1437
1533 1531 1529 1528 1526 1524 1522 1520 1518 1516 1515 1513 1511 1509 1507 1506 1504 1502 1500 1499 1497 1496 1495 1493 1491 1490 1488 1487 1485 1483 1482 1480 1478 1476 1475 1473 1472 1471 1469 1468 1466 1465 1463 1462 1460 1459 1457 1456 1455 1454 1453 1451 1451 1449 1448 1447 1446 1445 1444 1442 1441 1440 1440 1439 1438 1438 1437 1437 1436
1532 1530 1528 1526 1524 1523 1521 1519 1517 1515 1513 1511 1510 1508 1506 1505 1503 1501 1500 1499 1497 1496 1494 1492 1491 1489 1488 1486 1485 1483 1481 1479 1477 1476 1474 1472 1471 1470 1468 1467 1465 1464 1462 1460 1459 1457 1456 1455 1454 1452 1451 1450 1449 1448 1447 1446 1444 1443 1442 1441 1440 1439 1438 1437 1437 1437 1436 1436 1436
1531 1529 1527 1525 1523 1521 1520 1518 1516 1514 1512 1511 1509 1507 1506 1504 1503 1501 1500 1499 1497 1496 1494 1492 1491 1489 1487 1486 1484 1482 1481 1479 1477 1475 1473 1471 1470 1469 1467 1466 1464 1462 1461 1459 1457 1456 1455 1454 1452 1451 1450 1449 1448 1446 1445 1444 1443 1441 1441 1440 1439 1438 1437 1436 1436 1436 1436 1435 1435
1530 1528 1526 1524 1522 1521 1518 1516 1514 1513 1511 1510 1508 1507 1505 1504 1502 1501 1500 1499 1497 1496 1494 1492 1491 1489 1487 1485 1483 1481 1480 1478 1476 1474 1472 1471 1469 1468 1466 1465 1463 1461 1459 1458 1456 1455 1454 1452 1451 1449 1448 1447 1446 1445 1444 1443 1441 1440 1439 1438 1437 1437 1436 1435 1435 1435 1435 1435 1434
1529 1527 1525 1523 1521 1519 1517 1515 1514 1512 1511 1509 1508 1506 1505 1504 1502 1501 1500 1498 1497 1495 1493 1491 1490 1488 1486 1485 1483 1481 1479 1477 1475 1474 1472 1470 1469 1467 1465 1463 1461 1460 1458 1456 1456 1454 1453 1451 1450 1448 1446 1445 1444 1443 1442 1441 1440 1439 1438 1437 1436 1436 1435 1435 1434 1434 1434 1434 1433
1528 1526 1524 1522 1521 1518 1516 1515 1513 1512 1511 1509 1508 1506 1505 1504 1502 1501 1500 1498 1496 1495 1493 1491 1489 1488 1486 1484 1482 1480 1478 1476 1475 1473 1471 1470 1468 1466 1464 1462 1460 1459 1457 1455 1454 1453 1451 1450 1448 1447 1446 1444 1443 1442 1441 1440 1439 1438 1437 1436 1435 1434 1434 1433 1433 1433 1433 1432 1432
1527 1526 1524 1522 1520 1518 1516 1515 1513 1512 1511 1509 1508 1506 1505 1504 1502 1501 1499 1498 1496 1494 1492 1491 1489 1487 1486 1484 1482 1480 1478 1476 1475 1473 1471 1469 1467 1465 1463 1461 1459 1457 1456 1454 1452 1451 1450 1449 1447 1446 1445 1443 1442 1441 1440 1439 1438 1438 1437 1436 1435 1434 1433 1433 1433 1432 1432 1431 1431
1526 1525 1523 1521 1519 1517 1516 1515 1513 1512 1511 1509 1508 1506 1505 1503 1502 1501 1499 1497 1496 1494 1492 1491 1489 1487 1485 1483 1481 1480 1478 1476 1474 1472 1470 1468 1466 1464 1462 1460 1458 1456 1454 1452 1451 1450 1448 1447 1446 1445 1443 1442 1441 1440 1439 1439 1438 1436 1436 1435 1434 1433 1433 1433 1432 1431 1431 1431 1430
1526 1524 1522 1521 1519 1517 1516 1514 1513 1512 1511 1509 1508 1506 1505 1503 1502 1500 1499 1497 1495 1494 1492 1491 1489 1487 1485 1483 1481 1479 1477 1476 1473 1471 1470 1467 1465 1463 1461 1459 1457 1455 1453 1451 1450 1448 1446 1446 1444 1443 1442 1441 1440 1439 1438 1437 1436 1436 1435 1434 1434 1433 1433 1432 1431 1431 1431 1430 1429
1525 1524 1522 1520 1519 1517 1516 1514 1513 1512 1511 1509 1508 1506 1505 1503 1502 1500 1499 1497 1496 1494 1492 1490 1488 1486 1484 1482 1480 1478 1477 1475 1473 1471 1469 1467 1465 1462 1460 1458 1456 1454 1452 1450 1448 1446 1445 1444 1442 1441 1441 1440 1439 1438 1437 1436 1435 1435 1434 1433 1433 1433 1432 1431 1431 1430 1430 1429 1428
1525 1523 1521 1520 1519 1517 1516 1515 1513 1512 1511 1509 1508 1506 1505 1503 1501 1500 1498 1497 1496 1494 1492 1490 1488 1486 1484 1482 1480 1478 1476 1474 1472 1470 1468 1466 1464 1461 1459 1457 1455 1453 1451 1449 1447 1445 1444 1442 1441 1440 1440 1439 1438 1437 1436 1435 1434 1433 1433 1433 1433 1432 1431 1431 1430 1430 1429 1428 1427
1525 1523 1522 1520 1519 1517 1516 1515 1513 1512 1511 1509 1508 1506 1505 1503 1501 1500 1498 1497 1496 1494 1492 1490 1488 1485 1483 1481 1479 1477 1476 1473 1471 1469 1467 1465 1463 1460 1458 1456 1454 1451 1450 1448 1446 1444 1443 1441 1441 1440 1439 1438 1437 1436 1435 1434 1433 1433 1433 1432 1432 1431 1430 1430 1429 1429 1428 1427 1427
1525 1524 1522 1521 1519 1517 1516 1515 1513 1512 1511 1509 1508 1506 1505 1503 1501 1500 1499 1497 1496 1494 1491 1490 1487 1485 1483 1481 1479 1477 1475 1473 1471 1469 1466 1464 1461 1459 1457 1455 1452 1450 1448 1447 1445 1444 1442 1441 1441 1440 1438 1437 1435 1434 1433 1432 1432 1432 1432 1431 1431 1431 1430 1429 1429 1428 1427 1427 1427
1526 1524 1523 1521 1520 1518 1516 1515 1514 1512 1511 1509 1508 1506 1505 1503 1501 1500 1499 1497 1495 1493 1491 1489 1487 1485 1483 1481 1479 1476 1475 1473 1471 1468 1466 1463 1461 1458 1456 1454 1451 1449 1447 1446 1444 1443 1442 1441 1440 1439 1437 1435 1434 1433 1432 1432 1432 1431 1431 1431 1431 1430 1429 1429 1428 1427 1427 1427 1427
1526 1525 1523 1521 1520 1518 1517 1516 1514 1512 1511 1509 1508 1506 1505 1503 1502 1500 1499 1497 1495 1493 1491 1489 1487 1485 1483 1481 1479 1476 1474 1472 1470 1467 1465 1462 1460 1457 1455 1453 1451 1449 1447 1445 1444 1442 1441 1440 1439 1437 1436 1435 1433 1432 1432 1432 1431 1431 1431 1430 1430 1429 1428 1427 1427 1427 1427 1426 1426
1526 1525 1523 1522 1520 1519 1517 1516 1514 1512 1511 1509 1508 1506 1505 1503 1502 1500 1498 1497 1495 1493 1491 1489 1487 1485 1482 1480 1478 1476 1474 1472 1469 1466 1464 1462 1460 1457 1455 1452 1451 1448 1446 1445 1443 1442 1441 1440 1439 1438 1436 1434 1433 1432 1432 1431 1431 1431 1430 1430 1429 1428 1427 1426 1426 1426 1426 1426 1426
1527 1525 1524 1522 1520 1519 1517 1516 1514 1512 1511 1510 1508 1507 1505 1503 1502 1500 1499 1497 1495 1493 1491 1489 1486 1484 1482 1480 1478 1476 1474 1472 1469 1466 1464 1461 1459 1457 1455 1453 1451 1449 1447 1445 1443 1442 1442 1441 1440 1438 1436 1434 1433 1433 1432 1431 1431 1430 1430 1429 1429 1428 1427 1426 1427 1427 1427 1426 1426
1527 1526 1524 1522 1521 1519 1517 1516 1514 1513 1511 1510 1508 1507 1505 1504 1502 1501 1499 1497 1495 1493 1491 1488 1486 1484 1482 1480 1478 1476 1474 1471 1469 1467 1464 1462 1459 1457 1455 1453 1451 1449 1446 1444 1443 1442 1442 1441 1440 1437 1436 1434 1433 1433 1432 1431 1430 1430 1429 1429 1428 1428 1427 1427 1427 1427 1427 1427 1427
1527 1526 1524 1522 1521 1519 1518 1516 1515 1513 1511 1510 1508 1507 1506 1504 1503 1501 1499 1497 1495 1493 1491 1488 1486 1484 1482 1480 1478 1476 1474 1472 1470 1467 1465 1463 1460 1458 1456 1454 1451 1448 1445 1443 1443 1443 1443 1441 1439 1437 1436 1435 1434 1433 1432 1431 1430 1429 1429 1429 1428 1428 1428 1428 1428 1428 1428 1427 1427
1527 1526 1524 1522 1521 1519 1518 1516 1515 1513 1512 1510 1509 1507 1506 1505 1503 1501 1500 1498 1495 1493 1490 1488 1486 1484 1482 1480 1478 1476 1474 1472 1470 1468 1466 1464 1461 1459 1457 1454 1450 1447 1445 1445 1445 1443 1442 1440 1440 1439 1437 1436 1435 1433 1432 1431 1430 1430 1430 1429 1429 1429 1429 1429 1429 1428 1428 1428 1427
1527 1526 1524 1522 1521 1520 1518 1516 1515 1513 1512 1511 1509 1508 1507 1505 1504 1502 1500 1498 1495 1492 1490 1488 1487 1485 1482 1481 1479 1477 1475 1473 1471 1469 1466 1465 1462 1460 1458 1454 1450 1447 1447 1449 1446 1443 1442 1441 1441 1440 1439 1437 1436 1434 1433 1432 1431 1431 1431 1431 1430 1430 1429 1429 1429 1429 1429 1429 1428
1527 1526 1524 1523 1521 1520 1518 1516 1515 1514 1512 1511 1510 1508 1507 1506 1504 1502 1500 1497 1495 1493 1491 1489 1487 1485 1483 1481 1479 1477 1475 1473 1471 1470 1467 1466 1463 1461 1458 1455 1451 1449 1450 1451 1447 1445 1445 1443 1442 1441 1440 1438 1437 1436 1435 1434 1433 1433 1432 1432 1431 1431 1430 1430 1430 1430 1430 1430 1429
1527 1526 1524 1523 1521 1520 1518 1517 1516 1514 1513 1511 1510 1509 1507 1506 1504 1502 1500 1498 1495 1493 1491 1489 1487 1485 1483 1481 1480 1478 1476 1474 1472 1471 1469 1466 1465 1462 1460 1456 1453 1452 1452 1452 1449 1447 1446 1445 1444 1442 1441 1440 1438 1437 1436 1436 1435 1434 1433 1432 1432 1431 1431 1431 1431 1431 1431 1431 1431
1527 1526 1525 1523 1521 1520 1519 1517 1516 1514 1513 1512 1511 1509 1508 1506 1504 1502 1500 1498 1496 1493 1491 1489 1487 1485 1483 1482 1480 1478 1477 1475 1473 1472 1470 1468 1466 1464 1461 1458 1455 1454 1455 1453 1450 1449 1447 1446 1445 1444 1442 1441 1440 1438 1438 1437 1436 1435 1434 1433 1432 1431 1431 1431 1431 1431 1431 1432 1431
1527 1526 1525 1523 1522 1520 1519 1517 1516 1515 1514 1512 1511 1510 1508 1506 1504 1502 1501 1498 1496 1494 1492 1490 1488 1486 1484 1482 1481 1479 1478 1476 1475 1473 1471 1469 1467 1465 1463 1460 1457 1456 1456 1455 1451 1450 1449 1447 1446 1445 1443 1442 1441 1440 1439 1439 1438 1436 1435 1433 1432 1432 1432 1432 1432 1432 1432 1433 1432
1528 1526 1525 1524 1522 1521 1519 1518 1516 1515 1514 1512 1511 1510 1508 1506 1505 1502 1501 1498 1497 1495 1493 1491 1489 1487 1486 1484 1482 1480 1479 1477 1476 1474 1472 1470 1468 1466 1464 1462 1459 1458 1457 1456 1453 1451 1450 1449 1448 1446 1445 1443 1442 1441 1440 1440 1439 1437 1436 1434 1433 1433 1433 1433 1433 1433 1434 1434 1433
1528 1526 1525 1524 1522 1521 1520 1518 1517 1516 1514 1513 1511 1510 1508 1507 1505 1503 1501 1499 1497 1496 1494 1492 1490 1488 1486 1485 1483 1481 1480 1478 1476 1475 1473 1471 1469 1467 1465 1463 1461 1459 1458 1458 1454 1452 1451 1450 1449 1448 1446 1444 1443 1442 1441 1441 1440 1439 1438 1436 1436 1435 1435 1434 1434 1434 1435 1435 1435
1528 1527 1526 1524 1523 1522 1520 1519 1517 1516 1515 1513 1512 1510 1509 1507 1505 1504 1502 1500 1498 1496 1494 1492 1491 1489 1487 1486 1484 1482 1481 1479 1477 1476 1474 1472 1471 1469 1467 1465 1462 1460 1459 1459 1456 1454 1452 1451 1450 1449 1447 1446 1444 1443 1442 1442 1441 1440 1439 1438 1438 1437 1436 1436 1435 1435 1435 1436 1436
1529 1527 1526 1525 1523 1522 1521 1520 1518 1516 1515 1514 1512 1511 1509 1507 1506 1504 1502 1500 1498 1496 1494 1493 1491 1490 1488 1487 1486 1484 1482 1481 1479 1477 1475 1473 1472 1470 1468 1466 1464 1462 1460 1460 1458 1456 1455 1453 1451 1451 1449 1447 1446 1444 1444 1443 1442 1441 1441 1440 1439 1438 1438 1437 1436 1436 1435 1436 1436
1529 1528 1526 1525 1524 1523 1521 1520 1519 1517 1516 1514 1512 1511 1509 1508 1506 1504 1503 1501 1499 1497 1495 1494 1492 1491 1489 1488 1487 1486 1484 1482 1480 1478 1476 1475 1473 1472 1470 1468 1466 1464 1462 1461 1460 1458 1457 1455 1453 1452 1451 1449 1447 1446 1445 1444 1444 1443 1442 1441 1441 1440 1439 1438 1438 1437 1436 1436 1436
1529 1528 1527 1526 1524 1523 1522 1520 1519 1517 1516 1514 1513 1511 1510 1508 1506 1505 1503 1502 1500 1498 1496 1495 1493 1492 1491 1490 1488 1487 1485 1484 1482 1480 1478 1476 1475 1474 1472 1470 1468 1466 1465 1464 1462 1461 1459 1457 1455 1453 1452 1451 1450 1448 1447 1446 1445 1444 1443 1443 1442 1441 1440 1440 1439 1438 1437 1436 1436
1530 1528 1527 1526 1525 1523 1522 1520 1519 1517 1516 1515 1513 1511 1510 1508 1507 1506 1504 1502 1501 1499 1497 1496 1495 1493 1492 1491 1489 1488 1486 1485 1483 1481 1480 1478 1477 1475 1473 1471 1470 1468 1467 1466 1465 1463 1461 1459 1457 1455 1454 1453 1452 1451 1449 1448 1446 1445 1444 1444 1443 1442 1441 1441 1440 1439 1438 1437 1436
1530 1529 1527 1526 1525 1523 1522 1520 1519 1517 1516 1515 1513 1512 1510 1509 1507 1506 1504 1502 1501 1500 1498 1497 1496 1494 1493 1491 1490 1489 1487 1486 1484 1483 1481 1480 1478 1476 1475 1473 1471 1470 1469 1468 1467 1465 1464 1462 1460 1458 1456 1454 1453 1452 1451 1449 1448 1447 1446 1445 1444 1443 1442 1441 1441 1440 1439 1438 1437